BEIDOU-3 G2

Last updated on Sun Dec 07 2025 00:02:50 GMT+0000 (Coordinated Universal Time)

1 45344U 20017A 25339.65791623 -.00000129 00000+0 00000+0 0 9992 2 45344 2.4835 43.7472 0005391 266.1366 81.6514 1.00262828 21310
UTC large
Height (km)
Speed (km/s)
/
Latitude / Longitude
Inclination (degrees)
Orbital Period (minutes)
Azimuth
Elevation
Range (km)
Doppler Factor

Next 0 passes for location: London (51.5072 / 0.1276)

Sorry there are no passes over London.